Theta_e
336 337 337 337 338 340 341 343 345 344 343 343 342 344 343 344 344 344 344 346 341 341 342 342 341 339 340 341 339 337 335 337 334
333 333 334 334 338 339 335 337 342 344 344 345 344 342 343 343 343 344 343 344 343 341 341 341 340 340 339 341 338 338 337 335 333
332 332 331 331 332 333 330 326 334 338 340 344 344 344 342 342 342 341 340 340 343 341 344 340 340 339 340 340 338 338 338 335 332
329 329 328 327 328 328 327 324 322 333 336 339 343 342 342 341 340 340 339 340 340 341 341 341 340 340 340 339 339 337 337 334 331
321 323 324 324 324 323 322 322 319 322 329 333 339 341 339 338 336 336 337 340 341 342 339 341 340 339 340 340 337 336 336 335 331
316 319 319 319 318 317 314 315 316 317 321 326 329 334 335 334 333 333 335 337 340 340 341 337 340 338 340 341 339 335 334 335 332
308 311 308 307 305 306 307 308 310 312 313 316 320 322 323 326 328 326 332 333 335 337 339 340 340 340 341 342 340 335 335 336 333
304 303 302 302 301 301 301 301 301 303 305 307 309 311 314 317 318 318 322 325 331 334 335 336 337 338 339 341 341 337 336 335 334
303 302 301 301 300 300 300 300 300 300 301 301 301 302 304 306 308 310 315 318 322 326 331 330 334 334 337 338 340 340 337 336 334
303 302 301 301 300 300 300 299 299 299 299 299 299 300 299 299 300 301 303 307 312 318 319 319 324 329 331 333 333 338 338 336 335
303 302 301 301 301 300 300 299 299 299 300 298 298 299 299 298 298 298 297 298 298 300 306 309 314 318 322 323 326 332 336 338 335
302 302 301 301 301 301 300 300 299 299 300 300 300 298 299 299 298 297 297 297 297 297 303 304 306 309 312 318 322 325 333 334 337
301 301 301 301 301 301 300 299 300 301 301 301 301 300 299 298 298 297 298 297 298 298 298 298 299 305 308 310 315 318 322 332 335
300 301 301 301 301 300 300 299 300 301 301 301 301 300 298 299 298 299 299 298 299 298 299 298 299 299 305 307 308 310 313 319 330
300 301 301 301 301 300 300 300 300 300 300 300 300 299 298 299 300 300 299 299 298 298 298 299 301 300 300 300 303 307 310 311 317
300 300 301 301 301 300 300 300 300 301 300 301 300 300 299 300 300 300 299 299 299 299 300 301 301 301 301 300 300 303 306 308 311
300 300 300 300 301 300 300 300 300 300 299 300 299 301 301 300 299 299 299 299 299 299 299 300 300 301 301 301 301 300 300 305 309
300 300 300 300 300 300 300 299 299 300 299 298 300 301 301 300 299 299 299 299 299 299 299 299 300 300 300 301 302 302 303 301 306
300 300 300 300 300 299 299 299 299 299 299 299 299 299 300 301 301 299 299 299 299 299 299 299 300 300 300 301 301 300 303 305 306
300 300 300 300 299 299 299 299 298 299 299 299 299 299 300 300 301 301 300 299 299 299 299 299 300 300 300 301 301 302 304 305 306
Wind_Speed
12 12 13 13 14 14 12 8 9 7 5 3 5 4 4 4 4 3 2 3 3 3 1 2 3 3 2 2 2 1 2 5 6
11 12 12 13 13 12 13 8 10 9 7 4 2 3 3 3 7 7 5 3 4 5 4 4 5 4 3 3 2 2 2 4 5
11 11 11 12 11 12 11 9 8 6 6 8 5 3 2 3 5 6 7 6 5 8 5 6 6 7 5 4 4 2 3 4 3
11 11 10 10 11 11 9 8 8 6 4 5 6 6 4 5 5 5 7 7 7 9 5 6 6 7 6 5 5 4 5 5 3
6 9 10 10 11 10 7 6 7 7 6 6 6 3 2 3 6 8 14 10 9 10 8 6 6 7 8 6 6 6 7 7 7
7 10 9 10 10 8 5 6 7 7 7 6 6 2 0 1 6 4 8 12 13 8 8 7 6 6 8 8 7 7 6 9 9
6 7 7 8 8 8 7 7 7 6 8 8 7 8 7 6 6 8 3 6 10 13 13 9 4 6 9 11 9 8 7 8 10
7 7 8 8 9 10 10 10 11 10 9 8 8 7 7 6 6 7 10 12 5 4 8 10 10 12 11 11 13 10 11 10 11
7 7 8 8 9 9 10 11 11 11 11 10 9 8 6 6 5 4 4 6 7 6 7 6 6 8 11 11 9 15 12 12 13
7 7 7 8 8 9 9 10 10 10 11 10 10 9 9 7 6 4 4 5 7 9 10 12 10 12 10 10 14 9 16 16 16
7 7 7 7 7 8 8 9 9 9 9 9 10 8 7 8 8 8 8 8 7 7 10 11 12 12 12 13 14 12 8 19 20
8 8 7 7 6 7 7 7 7 7 7 7 8 8 4 6 9 10 10 10 11 12 14 14 14 14 13 13 13 13 9 9 22
10 9 9 8 6 6 6 6 6 6 7 6 5 8 1 3 8 12 10 12 12 13 16 16 15 15 15 15 15 15 13 10 5
12 11 10 9 7 6 4 5 4 5 7 7 6 8 2 2 2 9 10 12 11 14 15 18 16 15 16 16 16 16 16 15 8
14 13 12 11 8 6 4 3 4 5 8 7 8 7 3 6 5 10 13 11 10 16 16 17 14 17 17 18 19 18 18 17 18
16 15 14 12 10 6 4 3 3 3 9 7 9 4 4 5 8 11 13 13 9 16 14 15 16 17 19 19 20 20 21 20 18
19 17 15 13 12 8 6 3 2 2 5 5 3 3 4 4 16 9 7 11 11 16 14 15 16 17 18 20 24 22 22 22 20
21 18 16 15 13 10 8 6 4 3 1 2 1 2 2 11 4 16 10 11 18 18 21 20 21 20 19 20 21 20 20 21 23
23 20 18 16 15 12 10 9 6 6 2 2 4 6 6 3 6 5 19 20 16 21 20 19 22 21 21 23 26 27 23 20 22
24 23 20 19 16 13 12 11 9 9 5 5 4 6 8 11 10 11 13 20 20 20 20 21 22 21 21 21 23 24 23 24 24
Wind_Direction
66 64 60 59 59 58 58 74 56 59 66 64 60 93 113 87 61 61 65 35 18 352 275 227 201 195 196 198 179 222 309 155 142
73 68 63 61 67 66 53 66 63 62 60 69 107 94 116 77 55 48 45 12 337 333 308 256 254 253 219 199 208 270 248 162 145
85 77 68 64 64 63 56 59 61 57 58 59 98 96 81 56 39 27 27 20 360 -0 286 292 275 264 252 237 236 234 224 184 166
86 81 73 68 65 64 64 61 61 66 58 68 107 106 94 60 30 20 11 351 350 349 343 287 280 269 244 240 227 223 224 222 218
104 84 78 73 71 68 69 72 68 68 71 77 96 126 133 44 39 19 13 357 349 346 318 310 294 273 238 230 235 246 237 225 200
98 87 87 79 78 73 78 83 83 76 75 77 77 129 69 22 42 351 1 31 17 347 333 301 307 305 242 232 240 249 250 217 197
114 107 92 93 84 85 82 83 83 82 78 76 73 73 77 70 70 38 355 30 30 41 39 20 342 321 267 242 235 239 232 225 217
117 113 107 95 84 81 78 76 74 76 77 72 70 70 70 74 72 43 40 38 31 347 31 38 51 43 11 273 241 237 229 226 220
132 124 113 104 89 81 77 74 73 73 72 71 64 57 58 61 63 44 1 356 359 339 307 356 337 352 18 20 291 238 228 229 229
150 137 126 112 100 86 78 76 74 74 69 67 60 57 59 57 55 36 347 318 309 300 313 354 324 303 316 358 8 356 238 229 229
166 154 141 128 115 100 87 76 68 66 65 62 51 50 61 59 54 38 28 14 353 350 345 329 299 298 300 317 343 2 336 244 232
181 172 159 147 127 113 96 81 67 62 57 54 43 33 64 64 43 39 35 21 13 11 10 2 356 351 341 341 345 340 330 350 243
188 184 176 162 145 134 111 91 66 50 38 26 19 14 50 77 50 37 32 19 8 4 4 359 354 354 350 342 340 337 304 303 290
194 191 185 174 163 150 125 89 59 31 13 360 349 344 292 227 235 33 15 9 3 1 354 353 350 346 345 341 333 327 328 323 279
195 192 188 181 176 167 147 101 50 21 356 341 338 338 300 231 297 290 342 343 342 350 347 346 340 339 336 330 327 320 314 312 291
195 194 190 188 186 184 176 135 72 27 2 351 337 340 329 279 295 305 313 326 323 338 336 335 331 328 327 324 323 315 311 307 301
198 198 195 192 191 192 193 183 136 51 27 359 339 342 333 336 315 314 301 310 312 319 317 317 319 321 319 316 318 312 305 303 300
201 199 199 196 195 197 197 201 179 163 37 57 3 306 312 325 293 317 298 302 313 317 318 317 319 316 313 313 314 310 300 294 294
202 202 202 201 197 198 200 201 206 179 204 230 222 232 267 307 309 309 305 302 304 306 301 298 303 302 304 310 312 314 300 297 289
204 205 204 201 200 202 206 203 212 208 218 227 242 248 255 253 251 288 292 293 292 292 284 287 292 296 298 301 304 307 299 293 291